| time (UTC) | temp F | wind direction | speed knots | gust knots | rain 1hr in | rain 24hr in | rain mn in | humidity % | barometer mb |
| 20260508083017 | 68 | 45 | 2.6 | 6.1 | 0.00 | 0.01 | 0.00 | 91 | 1013.5 |
| 20260508080017 | 68 | 45 | 0.9 | 6.1 | 0.00 | 0.01 | 0.00 | 91 | 1013.8 |
| 20260508073037 | 68 | 45 | 0.9 | 4.3 | 0.00 | 0.01 | 0.00 | 91 | 1013.8 |
| 20260508070017 | 68 | 45 | 1.7 | 6.1 | 0.00 | 0.01 | 0.00 | 90 | 1013.9 |
| 20260508063017 | 68 | 45 | 1.7 | 4.3 | 0.00 | 0.01 | 0.00 | 90 | 1014.1 |
| 20260508060037 | 68 | 0.0 | 1.7 | 0.00 | 0.01 | 0.00 | 89 | 1014.3 | |
| 20260508053017 | 69 | 0.0 | 3.5 | 0.00 | 0.01 | 0.00 | 89 | 1014.4 | |
| 20260508050017 | 69 | 45 | 0.9 | 7.8 | 0.00 | 0.01 | 0.01 | 88 | 1014.9 |
| 20260508043016 | 70 | 45 | 1.7 | 7.0 | 0.00 | 0.01 | 0.01 | 88 | 1014.8 |
| 20260508040017 | 70 | 45 | 1.7 | 7.0 | 0.00 | 0.01 | 0.01 | 87 | 1015.1 |
| 20260508033016 | 71 | 45 | 2.6 | 7.0 | 0.00 | 0.01 | 0.01 | 86 | 1015.3 |
| 20260508030016 | 72 | 45 | 2.6 | 7.0 | 0.00 | 0.01 | 0.01 | 87 | 1015.2 |
| 20260508023057 | 73 | 45 | 0.9 | 6.1 | 0.00 | 0.01 | 0.01 | 86 | 1014.6 |
| 20260508020016 | 74 | 45 | 2.6 | 6.1 | 0.00 | 0.01 | 0.01 | 86 | 1014.2 |
| 20260508013016 | 74 | 45 | 0.9 | 4.3 | 0.00 | 0.01 | 0.01 | 85 | 1014.4 |
| 20260508010016 | 75 | 0.0 | 3.5 | 0.00 | 0.01 | 0.01 | 85 | 1014.1 | |
| 20260508003016 | 75 | 45 | 2.6 | 7.0 | 0.00 | 0.01 | 0.01 | 84 | 1013.3 |
| 20260508000036 | 76 | 45 | 3.5 | 8.7 | 0.00 | 0.01 | 0.01 | 83 | 1013.4 |
| 20260507233016 | 76 | 45 | 2.6 | 7.0 | 0.00 | 0.01 | 0.01 | 83 | 1013.8 |
| 20260507230015 | 76 | 45 | 3.5 | 8.7 | 0.00 | 0.01 | 0.01 | 82 | 1013.6 |
| 20260507223016 | 77 | 45 | 4.3 | 8.7 | 0.00 | 0.01 | 0.01 | 81 | 1013.5 |
| 20260507220036 | 78 | 45 | 2.6 | 7.0 | 0.00 | 0.01 | 0.01 | 80 | 1013.4 |
| 20260507213015 | 78 | 45 | 1.7 | 7.0 | 0.00 | 0.01 | 0.01 | 79 | 1013.2 |
| 20260507210018 | 78 | 0.0 | 2.6 | 0.00 | 0.01 | 0.01 | 81 | 1013.2 | |
| 20260507203017 | 77 | 0.0 | 2.6 | 0.00 | 0.01 | 0.01 | 82 | 1013.4 | |
| 20260507200017 | 75 | 23 | 0.9 | 3.5 | 0.00 | 0.01 | 0.01 | 84 | 1013.7 |
| 20260507193017 | 74 | 23 | 0.9 | 4.3 | 0.00 | 0.01 | 0.01 | 85 | 1014.0 |
| 20260507190037 | 73 | 23 | 1.7 | 7.0 | 0.00 | 0.01 | 0.01 | 86 | 1014.1 |
| 20260507183017 | 73 | 23 | 1.7 | 5.2 | 0.00 | 0.01 | 0.01 | 86 | 1014.3 |
| 20260507180017 | 73 | 45 | 2.6 | 7.0 | 0.00 | 0.01 | 0.01 | 88 | 1014.5 |
| 20260507173037 | 70 | 23 | 1.7 | 5.2 | 0.00 | 0.01 | 0.01 | 92 | 1014.8 |
| 20260507170017 | 69 | 23 | 2.6 | 5.2 | 0.00 | 0.01 | 0.01 | 94 | 1014.8 |
| 20260507163017 | 69 | 23 | 2.6 | 5.2 | 0.00 | 0.01 | 0.01 | 94 | 1015.1 |
| 20260507160017 | 69 | 23 | 1.7 | 5.2 | 0.00 | 0.01 | 0.01 | 94 | 1015.0 |
| 20260507153036 | 69 | 23 | 3.5 | 6.1 | 0.00 | 0.01 | 0.01 | 95 | 1015.0 |
| 20260507150017 | 69 | 23 | 3.5 | 7.0 | 0.00 | 0.01 | 0.01 | 95 | 1014.9 |
| 20260507143017 | 70 | 23 | 2.6 | 6.1 | 0.01 | 0.01 | 0.01 | 95 | 1014.8 |
| 20260507140016 | 70 | 23 | 2.6 | 5.2 | 0.01 | 0.01 | 0.01 | 95 | 1014.6 |
| 20260507133016 | 71 | 23 | 2.6 | 6.1 | 0.00 | 0.00 | 0.00 | 94 | 1014.4 |
| 20260507130016 | 72 | 0 | 1.7 | 6.1 | 0.00 | 0.00 | 0.00 | 94 | 1014.2 |
| 20260507123036 | 74 | 0 | 2.6 | 7.8 | 0.00 | 0.00 | 0.00 | 94 | 1013.7 |
| 20260507120016 | 77 | 248 | 0.9 | 4.3 | 0.00 | 0.00 | 0.00 | 94 | 1012.9 |
| 20260507113016 | 77 | 248 | 0.9 | 4.3 | 0.00 | 0.00 | 0.00 | 94 | 1012.5 |
| 20260507110036 | 77 | 248 | 0.9 | 3.5 | 0.00 | 0.00 | 0.00 | 93 | 1012.0 |
| 20260507103036 | 77 | 248 | 0.9 | 4.3 | 0.00 | 0.00 | 0.00 | 93 | 1011.8 |
| 20260507100016 | 77 | 248 | 0.9 | 5.2 | 0.00 | 0.00 | 0.00 | 93 | 1011.5 |
| 20260507093016 | 77 | 248 | 0.9 | 5.2 | 0.00 | 0.00 | 0.00 | 92 | 1011.5 |
| 20260507090016 | 77 | 248 | 1.7 | 7.0 | 0.00 | 0.00 | 0.00 | 92 | 1011.4 |